Home   Weather   Atlantic City   Past weeks

Flag for USA Past Weather in Atlantic City, New Jersey, USA — Yesterday and Last 2 Weeks

61 °F


Feels Like: 61 °F
Forecast: 53 / 64 °F
Wind: 15 mph from Northwest

Location: Atlantic City International Airport

Current Time: Oct 24, 2016 at 10:25:13 AM

Latest Report: Oct 24, 2016 at 9:54 AM

Visibility: 10 mi

Pressure: 29.98 "Hg

Humidity: 58%

Dew Point: 46 °F

Location of Atlantic CityLocation

Past Weather in Atlantic City — Graph


Atlantic City Temperature Yesterday

Maximum temperature yesterday: 65 °F (at 3:54 PM)
Minimum temperature yesterday: 45 °F (at 6:54 AM)
Average temperature yesterday: 55 °F

High & Low Weather Summary for the Past Weeks

High85 °F (Oct 19, 2:54 PM)97% (Oct 13, 6:01 AM)30.46 "Hg (Oct 13, 6:01 AM)
Low40 °F (Oct 11, 5:54 AM)28% (Oct 10, 4:54 PM)29.43 "Hg (Oct 21, 11:54 PM)
Average59 °F74%30.06 "Hg
* Reported Oct 9 9:01 AM — Oct 24 8:54 AM, Atlantic City, Weather by CustomWeather, © 2016

Note: Actual official high and low records may vary slightly from our data, if they occured in-between our weather recording intervals... More about our weather records


Atlantic City Weather History for the Previous 24 Hours

Scroll right to see more
Time TempWeatherWind HumidityBarometerVisibility
8:54 AM
Mon, Oct 24
59 °FSunny.10 mph64%29.95 "Hg10 mi
7:54 AM56 °FScattered clouds.10 mph72%29.92 "Hg10 mi
6:54 AM56 °FClear.9 mph72%29.88 "Hg10 mi
5:54 AM60 °FClear.13 mph60%29.85 "Hg10 mi
4:54 AM59 °FPassing clouds.10 mph64%29.82 "Hg10 mi
3:54 AM59 °FPassing clouds.12 mph64%29.83 "Hg10 mi
2:54 AM57 °FClear.10 mph72%29.84 "Hg10 mi
1:54 AM56 °FClear.10 mph75%29.87 "Hg10 mi
12:54 AM55 °FClear.8 mph74%29.89 "Hg10 mi
11:54 PM
Sun, Oct 23
57 °FClear.8 mph67%29.91 "Hg10 mi
10:54 PM56 °FClear.7 mph67%29.93 "Hg10 mi
9:54 PM55 °FClear.6 mph69%29.94 "Hg10 mi
8:54 PM55 °FClear.7 mph69%29.95 "Hg10 mi
7:54 PM54 °FClear.6 mph72%29.95 "Hg10 mi
6:54 PM56 °FClear.6 mph65%29.95 "Hg10 mi
5:54 PM62 °FSunny.6 mph50%29.93 "Hg10 mi
4:54 PM64 °FPassing clouds.14 mph45%29.91 "Hg10 mi
3:54 PM65 °FPassing clouds.13 mph44%29.91 "Hg10 mi
2:54 PM63 °FSunny.14 mph43%29.91 "Hg10 mi
1:54 PM62 °FBroken clouds.17 mph46%29.92 "Hg10 mi
12:54 PM61 °FPassing clouds.25 mph46%29.93 "Hg10 mi
11:54 AM61 °FPassing clouds.17 mph46%29.94 "Hg10 mi
10:54 AM58 °FPassing clouds.24 mph47%29.93 "Hg10 mi
Weather by CustomWeather, © 2016

See weather overviewHow to use our weather pages